, AK

(GMT )
Deadhorse

Weather History for PASC - September, 2013

Change the Weather History Date:

Monday, September 16, 2013

  Actual Average Record
Temperature  
Mean Temperature 28 °F -  
Max Temperature 30 °F 36 °F 58 °F (1993)
Min Temperature 26 °F 27 °F 17 °F (1996)
Degree Days  
Heating Degree Days 37    
Moisture  
Dew Point 22 °F    
Average Humidity 79    
Maximum Humidity 93    
Minimum Humidity 69    
Precipitation  
Precipitation 0.00 in - - ()
Sea Level Pressure  
Sea Level Pressure 30.25 in    
Wind  
Wind Speed 10 mph (ENE)    
Max Wind Speed 18 mph    
Max Gust Speed 23 mph    
Visibility 9 miles    
Events Snow    
Averages and records for this station are not official NWS values.
T = Trace of Precipitation, MM = Missing Value Source: NWS Daily Summary

Daily Weather History Graph

Daily Weather History Graph

Search for Another Location

Airport or City:

Trip Planner

Search our weather history database for the weather conditions in past years. The results will help you decide how hot, cold, wet, or windy it might be!

Date:

Astronomy

Sep. 16, 2013 Rise Set
Actual Time 7:11 AM AKDT 8:22 PM AKDT
Civil Twilight 6:07 AM AKDT 9:26 PM AKDT
Nautical Twilight 4:40 AM AKDT 10:52 PM AKDT
Astronomical Twilight 2:21 AM AKDT 1:15 AM AKDT
Moon 7:32 PM AKDT (9/16) 2:45 AM AKDT (9/16)
Length of Visible Light 15h 18m
Length of Day
13h 11m
Waxing Gibbous, 91% of the Moon is Illuminated
Sep 16
Waxing Gibbous
Sep 19
Full
Sep 26
Last Quarter
Oct 4
New
Oct 11
First Quarter

Hourly Weather History & Observations

Time (AKDT) Temp. Windchill Dew Point Humidity Pressure Visibility Wind Dir Wind Speed Gust Speed Precip Events Conditions
12:27 AM 26.6 °F 19.1 °F 23.0 °F 86% 30.32 in 10.0 mi ENE 6.9 mph - N/A   Overcast
12:37 AM 26.6 °F 19.1 °F 21.2 °F 80% 30.32 in 10.0 mi NNE 6.9 mph - N/A   Overcast
12:53 AM 27.0 °F 19.5 °F 21.9 °F 81% 30.32 in 10.0 mi NE 6.9 mph - N/A   Overcast
1:53 AM 27.0 °F 18.7 °F 21.0 °F 78% 30.32 in 10.0 mi NE 8.1 mph - N/A   Overcast
2:53 AM 26.1 °F 18.4 °F 21.9 °F 84% 30.32 in 10.0 mi ENE 6.9 mph - N/A   Overcast
3:53 AM 26.1 °F 17.6 °F 21.0 °F 81% 30.31 in 10.0 mi NE 8.1 mph - N/A   Overcast
4:53 AM 26.1 °F 16.8 °F 21.0 °F 81% 30.30 in 10.0 mi ENE 9.2 mph - N/A   Overcast
5:53 AM 26.1 °F 17.6 °F 21.9 °F 84% 30.30 in 10.0 mi ENE 8.1 mph - N/A   Overcast
6:53 AM 26.1 °F 18.4 °F 21.9 °F 84% 30.29 in 10.0 mi ENE 6.9 mph - N/A   Overcast
7:53 AM 26.1 °F 15.0 °F 21.0 °F 81% 30.28 in 10.0 mi ENE 12.7 mph 18.4 mph N/A   Overcast
8:53 AM 27.0 °F 15.6 °F 21.0 °F 78% 30.28 in 10.0 mi NE 13.8 mph - N/A   Overcast
9:11 AM 26.6 °F 16.2 °F 21.2 °F 80% 30.27 in 10.0 mi NE 11.5 mph - N/A   Overcast
9:53 AM 27.0 °F 15.6 °F 21.0 °F 78% 30.27 in 10.0 mi ENE 13.8 mph - N/A   Overcast
10:53 AM 27.0 °F 16.7 °F 19.9 °F 75% 30.27 in 10.0 mi East 11.5 mph - N/A   Overcast
11:53 AM 28.0 °F 17.5 °F 21.0 °F 75% 30.26 in 10.0 mi East 12.7 mph - N/A   Overcast
12:53 PM 28.9 °F 17.7 °F 21.0 °F 72% 30.26 in 10.0 mi East 15.0 mph - N/A   Overcast
1:53 PM 28.9 °F 18.2 °F 19.9 °F 69% 30.25 in 10.0 mi East 13.8 mph - N/A   Overcast
2:53 PM 28.9 °F 17.7 °F 21.0 °F 72% 30.24 in 10.0 mi ENE 15.0 mph - N/A   Overcast
3:53 PM 28.9 °F 19.2 °F 21.9 °F 75% 30.23 in 10.0 mi East 11.5 mph - N/A   Overcast
4:53 PM 30.0 °F 19.5 °F 21.9 °F 72% 30.22 in 10.0 mi ENE 13.8 mph - N/A   Overcast
5:53 PM 30.0 °F 19.1 °F 23.0 °F 75% 30.21 in 10.0 mi ENE 15.0 mph - N/A   Overcast
6:41 PM 28.4 °F 17.5 °F 24.8 °F 86% 30.20 in 9.0 mi ENE 13.8 mph - 0.00 in   Light Freezing Drizzle
6:51 PM 28.4 °F 16.2 °F 24.8 °F 86% 30.20 in 2.5 mi ENE 17.3 mph - 0.00 in Snow Light Snow
6:53 PM 28.9 °F 17.7 °F 25.0 °F 85% 30.20 in 1.5 mi ENE 15.0 mph - 0.00 in Snow Light Snow
7:06 PM 28.4 °F 17.5 °F 26.6 °F 93% 30.20 in 3.0 mi ENE 13.8 mph - 0.00 in Snow Light Snow
7:53 PM 28.9 °F 17.7 °F 24.1 °F 82% 30.20 in 10.0 mi ENE 15.0 mph - 0.00 in   Overcast
8:53 PM 28.9 °F 18.2 °F 21.9 °F 75% 30.19 in 10.0 mi ENE 13.8 mph - N/A   Overcast
9:53 PM 28.9 °F 17.3 °F 21.9 °F 75% 30.19 in 10.0 mi East 16.1 mph - N/A   Overcast
10:53 PM 28.0 °F 17.0 °F 21.0 °F 75% 30.19 in 10.0 mi East 13.8 mph - 0.00 in Snow Light Snow
11:53 PM 28.0 °F 15.3 °F 21.0 °F 75% 30.18 in 10.0 mi ENE 18.4 mph 23.0 mph 0.00 in Snow Light Snow